Terminal Aerodrome Forecast
Issued by NWS Upton, NY

Home | Current Version | Previous Version | Text Only | Print | Product List | Glossary On
Versions: 1 2 3 4 5 6 7 8 9 10 11 12 13 14 15 16 17 18 19 20 21 22 23 24 25 26 27 28 29 30 31 32 33 34 35 36 37 38
000
FTUS41 KOKX 281531 AAB
TAFISP
TAF AMD
KISP 281531Z 2816/2912 08005KT 1 1/2SM -RA BR OVC004
      TEMPO 2816/2817 3/4SM -TSRA OVC006CB
     FM281800 06007KT 1SM BR OVC007
     FM282100 07006KT 2SM -RA OVC007
     FM290500 36005KT 4SM BR OVC010
     FM290900 35007KT P6SM BKN020=

USA.gov is the U.S. government's official web portal to all federal, state and local government web resources and services.